Guymon, OK

10:31 AM CST on January 18, 2017 (GMT -0600)
Guymon Municipal

Weather History for KGUY - June, 2013

Change the Weather History Date:

Thursday, June 6, 2013

  Actual Average Record
Temperature  
Mean Temperature 68 °F 71 °F  
Max Temperature 79 °F 85 °F 99 °F (2011)
Min Temperature 56 °F 58 °F 50 °F (1999)
Degree Days  
Heating Degree Days 0 1  
Month to date heating degree days 0 6  
Since 1 June heating degree days 0 6  
Since 1 July heating degree days 4311 4455  
Cooling Degree Days 3 7  
Month to date cooling degree days 36 38  
Year to date cooling degree days 240 146  
Since 1 June cooling degree days 36 38  
Growing Degree Days 18 (Base 50)    
Moisture  
Dew Point 52 °F    
Average Humidity 60    
Maximum Humidity 80    
Minimum Humidity 39    
Precipitation  
Precipitation 0.00 in 0.12 in 0.79 in (2014)
Month to date precipitation 0.81 0.72  
Year to date precipitation 3.16 6.97  
Snow  
Snow 0.00 in - - ()
Month to date snowfall T  
Since 1 June snowfall T  
Since 1 July snowfall 22.3  
Snow Depth 0.00 in    
Sea Level Pressure  
Sea Level Pressure 29.99 in    
Wind  
Wind Speed 6 mph (NNE)    
Max Wind Speed 15 mph    
Max Gust Speed 21 mph    
Visibility 10 miles    
Events      
T = Trace of Precipitation, MM = Missing Value Source: NWS Daily Summary

Daily Weather History Graph

Daily Weather History Graph

Search for Another Location

Airport or City:

Trip Planner

Search our weather history database for the weather conditions in past years. The results will help you decide how hot, cold, wet, or windy it might be!

Date:

Astronomy

Jun. 06, 2013 Rise Set
Actual Time 6:27 AM CDT 9:02 PM CDT
Civil Twilight 5:57 AM CDT 9:32 PM CDT
Nautical Twilight 5:19 AM CDT 10:10 PM CDT
Astronomical Twilight 4:37 AM CDT 10:52 PM CDT
Moon 5:07 AM CDT (6/6) 7:27 PM CDT (6/6)
Length of Visible Light 15h 35m
Length of Day
14h 35m
Waning Crescent, 3% of the Moon is Illuminated
Jun 6
Waning Crescent
Jun 8
New
Jun 16
First Quarter
Jun 23
Full
Jun 29
Last Quarter

Hourly Weather History & Observations

Time (CDT) Temp. Dew Point Humidity Pressure Visibility Wind Dir Wind Speed Gust Speed Precip Events Conditions
12:53 AM 57.9 °F 52.0 °F 81% 30.05 in 10.0 mi North 11.5 mph - N/A   Overcast
1:53 AM 57.9 °F 52.0 °F 81% 30.04 in 10.0 mi NNE 10.4 mph - N/A   Overcast
2:53 AM 57.0 °F 52.0 °F 83% 30.03 in 10.0 mi North 6.9 mph - N/A   Overcast
3:53 AM 57.0 °F 51.1 °F 81% 30.02 in 10.0 mi North 8.1 mph - N/A   Overcast
4:07 AM 57.2 °F 51.8 °F 82% 30.09 in 10.0 mi North 6.9 mph - N/A   Overcast
4:53 AM 57.0 °F 51.1 °F 81% 30.01 in 10.0 mi North 5.8 mph - N/A   Overcast
5:18 AM 57.2 °F 51.8 °F 82% 30.09 in 10.0 mi NNE 5.8 mph - N/A   Overcast
5:53 AM 57.0 °F 52.0 °F 83% 30.02 in 10.0 mi NNE 5.8 mph - N/A   Overcast
6:53 AM 57.0 °F 50.0 °F 77% 30.01 in 10.0 mi North 5.8 mph - N/A   Overcast
7:34 AM 57.2 °F 51.8 °F 82% 30.09 in 10.0 mi North 5.8 mph - N/A   Overcast
7:53 AM 57.9 °F 51.1 °F 78% 30.03 in 10.0 mi NNW 5.8 mph - N/A   Overcast
8:53 AM 60.1 °F 51.1 °F 72% 30.04 in 10.0 mi NNW 8.1 mph - N/A   Overcast
9:53 AM 63.0 °F 50.0 °F 63% 30.04 in 10.0 mi North 6.9 mph - N/A   Clear
10:53 AM 64.9 °F 50.0 °F 58% 30.04 in 10.0 mi Variable 4.6 mph - N/A   Clear
11:53 AM 68.0 °F 51.1 °F 55% 30.02 in 10.0 mi Variable 6.9 mph - N/A   Clear
12:53 PM 71.1 °F 51.1 °F 49% 30.01 in 10.0 mi Calm Calm - N/A   Clear
1:53 PM 71.1 °F 52.0 °F 51% 29.98 in 10.0 mi Calm Calm - N/A   Clear
2:53 PM 73.9 °F 52.0 °F 46% 29.96 in 10.0 mi Calm Calm - N/A   Clear
3:53 PM 75.9 °F 53.1 °F 45% 29.94 in 10.0 mi Calm Calm - N/A   Clear
4:53 PM 75.9 °F 53.1 °F 45% 29.91 in 10.0 mi Calm Calm - N/A   Clear
5:53 PM 78.1 °F 52.0 °F 40% 29.90 in 10.0 mi ENE 6.9 mph - N/A   Clear
6:53 PM 78.1 °F 52.0 °F 40% 29.87 in 10.0 mi NE 5.8 mph - N/A   Clear
7:53 PM 77.0 °F 52.0 °F 42% 29.88 in 10.0 mi ENE 11.5 mph - N/A   Clear
8:53 PM 73.0 °F 51.1 °F 46% 29.90 in 10.0 mi East 9.2 mph - N/A   Clear
9:53 PM 70.0 °F 52.0 °F 53% 29.92 in 10.0 mi East 6.9 mph - N/A   Clear
10:53 PM 66.9 °F 52.0 °F 59% 29.96 in 10.0 mi SSE 5.8 mph - N/A   Clear
11:53 PM 64.0 °F 51.1 °F 63% 29.96 in 10.0 mi SSE 8.1 mph - N/A   Clear